Regional Weather Roundup
Issued by NWS Boston, MA

Home | Current Version | Previous Version | Text Only | Print | Product List | Glossary On
Versions: 1 2 3 4 5 6 7 8 9 10 11 12 13 14 15 16 17 18 19 20 21 22 23 24 25 26 27
000
ASUS41 KBOX 230610
RWRBOX

REGIONAL WEATHER ROUNDUP
NATIONAL WEATHER SERVICE TAUNTON MA
200 AM EDT THU OCT 23 2014

NOTE:  "FAIR" INDICATES FEW OR NO CLOUDS BELOW 12,000 FEET WITH NO
SIGNIFICANT WEATHER AND/OR OBSTRUCTIONS TO VISIBILITY.  THE FOLLOWING
OBSERVATION LOCATIONS DO NOT REPORT PRESENT WEATHER...PROVINCETOWN...
SMITHFIELD...BLOCK ISLAND...KEENE...AND OXFORD.

MAZALL-230700-
EASTERN MASSACHUSETTS

CITY           SKY/WX    TMP DP  RH WIND       PRES   REMARKS
BOSTON         LGT RAIN  50  50 100 NE26G46   29.75R FOG
6HR MIN TEMP:  50; 6HR MAX TEMP:  52; 6HR PCP:  0.86;

BEVERLY        RAIN      51  48  89 NE24G37   29.77F FOG
LAWRENCE       RAIN      48  46  93 N18G30    29.82F FOG
BEDFORD        LGT RAIN  48  48 100 N12       29.79S
BLUE HILL        N/A     49  49 100 N9G22     29.77R
NORWOOD        HVY RAIN  51  49  92 VRB7      29.80R FOG
MARSHFIELD     NOT AVBL
PLYMOUTH       CLOUDY    56  55  97 NE14G28   29.70F
TAUNTON        LGT RAIN  53  51  93 N8G20     29.68F
NEW BEDFORD    CLOUDY    55  54  96 N10G18    29.63F
$$

MAZALL-230700-
CAPE COD AND THE ISLANDS

CITY           SKY/WX    TMP DP  RH WIND       PRES   REMARKS
FALMOUTH       CLOUDY    59  57  94 NE18G26   29.64F
HYANNIS        CLOUDY    60  58  92 NE7       29.63F
CHATHAM        RAIN      59  58  96 E9G20     29.64F FOG
PROVINCETOWN   CLOUDY    57  54  88 NE24G32   29.67F THUNDER
NANTUCKET      LGT RAIN  60  59  96 NE12      29.57F
MARTHAS VNYRD  CLOUDY    59  58  96 NE13      29.60F
$$

MAZALL-230700-
CENTRAL AND WESTERN MASSACHUSETTS

CITY           SKY/WX    TMP DP  RH WIND       PRES   REMARKS
WORCESTER      HVY RAIN  45  43  93 NE18G26   29.80F FOG
6HR MIN TEMP:  45; 6HR MAX TEMP:  45; 6HR PCP:  0.81;

FITCHBURG      TSTM      48  45  89 CALM      29.85R FOG
ORANGE         RAIN      48  45  89 N9        29.85S
SPRINGFIELD    HVY RAIN  48  46  93 NE17      29.81R
WESTFIELD      RAIN      49  46  90 NE13G21   29.84R
NORTH ADAMS    RAIN      48  46  93 VRB3      29.87F FOG
PITTSFIELD     LGT RAIN  47  45  93 NE7       29.83F
$$

RIZALL-230700-
RHODE ISLAND

CITY           SKY/WX    TMP DP  RH WIND       PRES   REMARKS
PROVIDENCE     LGT RAIN  52  49  89 N28G38    29.68F
6HR MIN TEMP:  52; 6HR MAX TEMP:  54; 6HR PCP:  0.72;

NEWPORT        CLOUDY    55  51  86 N22G31    29.64F
BLOCK ISLAND   CLOUDY    54  50  87 N18G32    29.60F
SMITHFIELD     CLOUDY    48  43  81 N20G26    29.73F
WESTERLY       CLOUDY    52  49  89 N18G28    29.65F
$$

CTZALL-230700-
CONNECTICUT

CITY           SKY/WX    TMP DP  RH WIND       PRES   REMARKS
BRADLEY INTL   LGT RAIN  50  46  86 N17G28    29.79R
6HR MIN TEMP:  50; 6HR MAX TEMP:  51; 6HR PCP:  0.35;

HARTFORD       CLOUDY    50  46  86 N14G31    29.77S
BRIDGEPORT     MOCLDY    52  47  83 N28G39    29.69S
DANBURY        CLOUDY    51  44  77 N13G24    29.77S
GROTON         LGT RAIN  50  48  93 N24G40    29.63F
NEW HAVEN      LGT RAIN  51  47  86 N28G38    29.69F
CHESTER        NOT AVBL
MERIDEN        CLOUDY    50  46  86 N14G22    29.75F
WILLIMANTIC    MOCLDY    50  45  83 N17G28    29.73F
OXFORD         CLOUDY    48  41  76 NE22G38   29.73F
$$

MEZ002-015-021-024-NHZ003-005-008-011-012-014-VTZ005-008-230700-
NORTHERN NEW ENGLAND

CITY           SKY/WX    TMP DP  RH WIND       PRES   REMARKS
PORTLAND ME    LGT RAIN  49  45  86 NE21G30   29.91F
6HR MIN TEMP:  48; 6HR MAX TEMP:  50; 6HR PCP:  0.30;

BANGOR ME      DRIZZLE   47  45  93 NE17G23   30.06F
CONCORD NH     LGT RAIN  47  46  97 N9G18     29.87F
MANCHESTER NH  HVY RAIN  48  44  86 N17       29.83F FOG
NASHUA NH      CLOUDY    48  46  93 N8        29.86  FOG
PORTSMOUTH NH  LGT RAIN  48  45  91 NE21G31   29.83F FOG
JAFFREY NH     RAIN      45  44  97 N8G21     29.84F FOG
KEENE NH       CLOUDY    48  39  71 N10G18    29.86F
BURLINGTON VT  CLOUDY    46  36  68 N16       30.05F
MT. WASHINGTON LGT RAIN  32  32 100 E49         N/A  VSB 1/16WCI  14
$$

NYZ052-076-230700-
EASTERN NEW YORK

CITY           SKY/WX    TMP DP  RH WIND       PRES   REMARKS
ALBANY         RAIN      49  43  80 N13G21    29.91F
6HR MIN TEMP:  49; 6HR MAX TEMP:  52; 6HR PCP:  0.07;

NEW YORK CITY  CLOUDY    53  47  79 N15G22    29.71F
6HR MIN TEMP:  51; 6HR MAX TEMP:  53; 6HR PCP:  0.42;

$$

ANZALL-230700-
MARINE OBSERVATIONS

STATION/POSITION TIME  TEMP    WIND        PRES    VSBY  WAVE
                       AIR SEA DIR/SP/G                  HT/PER
                 (UTC) (F)     (DEG/KT/KT) (MB)    (MI)  (FT/S)
BOSTON BUOY      NOT AVBL
BUZZARDS BAY     NOT AVBL
NANTUCKET SOUND  NOT AVBL
MASS BAY-STELLWA NOT AVBL
ISLE OF SHOALS   NOT AVBL
S OF BLOCK IS    NOT AVBL
$$

......................KEY.........................
  SKY/WX - SKY CONDITION/PRESENT WEATHER
  TMP    - TEMPERATURE IN FAHRENHEIT
  DWPT   - DEWPOINT IN FAHRENHEIT
  RH     - RELATIVE HUMIDITY IN PERCENT
  WIND   - DIRECTION AND SPEED IN MPH
  PRES   - MEAN SEA LEVEL PRESSURE IN INCHES OF HG
  WCI    - WIND CHILL INDEX
  VSB    - VISIBILITY IN MILES
  HX     - HEAT INDEX
  TC     - TEMPERATURE IN CELSIUS
  VRB    - VARIABLE WIND DIRECTION
  N/A    - NOT AVAILABLE



USA.gov is the U.S. government's official web portal to all federal, state and local government web resources and services.